This is the latest recevied weather packets stored in our database for station/object K7NDG. If no packets are shown the sender has not sent any weather packets the latest 10 day(s).
| Time | Temp. | Humidity | Pressure | Rain* | Wind** | Luminosity | Snow |
|---|---|---|---|---|---|---|---|
| 1777944013 | 16.67° C | 71% | 1012.9 hPa | 0 mm | - | 72 W/m² | - |
| 1777943708 | 16.67° C | 70% | 1012.8 hPa | 0 mm | - | 98 W/m² | - |
| 1777943405 | 17.22° C | 69% | 1012.6 hPa | 0 mm | - | 105 W/m² | - |
| 1777943101 | 17.22° C | 69% | 1012.8 hPa | 0 mm | - | 98 W/m² | - |
| 1777942797 | 17.78° C | 69% | 1012.7 hPa | 0 mm | - | 111 W/m² | - |
| 1777942494 | 17.78° C | 69% | 1012.9 hPa | 0 mm | - | 120 W/m² | - |
| 1777942192 | 17.78° C | 69% | 1013 hPa | 0 mm | - | 116 W/m² | - |
| 1777941889 | 18.33° C | 68% | 1012.9 hPa | 0 mm | - | 122 W/m² | - |
| 1777941585 | 18.33° C | 68% | 1012.7 hPa | 0 mm | - | 117 W/m² | - |
| 1777941282 | 18.33° C | 68% | 1012.9 hPa | 0 mm | - | 146 W/m² | - |
| 1777940979 | 18.33° C | 68% | 1013.1 hPa | 0 mm | - | 137 W/m² | - |
| 1777940675 | 18.89° C | 67% | 1012.9 hPa | 0 mm | - | 131 W/m² | - |
| 1777940373 | 18.89° C | 67% | 1012.7 hPa | 0 mm | - | 356 W/m² | - |
| 1777940071 | 18.89° C | 66% | 1012.7 hPa | 0 mm | - | 363 W/m² | - |
| 1777939767 | 18.89° C | 66% | 1012.8 hPa | 0 mm | - | 378 W/m² | - |
| 1777939466 | 19.44° C | 64% | 1012.6 hPa | 0 mm | - | 420 W/m² | - |
| 1777939162 | 19.44° C | 66% | 1012.7 hPa | 0 mm | - | 415 W/m² | - |
| 1777938860 | 19.44° C | 65% | 1012.8 hPa | 0 mm | - | 254 W/m² | - |
| 1777938555 | 19.44° C | 66% | 1012.5 hPa | 0 mm | - | 202 W/m² | - |
| 1777938253 | 20° C | 65% | 1012.7 hPa | 0 mm | - | 190 W/m² | - |
| 1777937949 | 20° C | 64% | 1012.8 hPa | 0 mm | - | 389 W/m² | - |
| 1777937645 | 20° C | 64% | 1012.7 hPa | 0 mm | - | 502 W/m² | - |
| 1777937342 | 20.56° C | 62% | 1012.8 hPa | 0 mm | - | 530 W/m² | - |
| 1777937039 | 20.56° C | 62% | 1012.5 hPa | 0 mm | - | 548 W/m² | - |
| 1777936736 | 20.56° C | 62% | 1012.6 hPa | 0 mm | - | 591 W/m² | - |
* Rain latest hour (hover to see other rain measurements)
** Current wind speed in m/s (hover to see current wind gust speed)